Wind_Speed
63 65 66 64 63 62 60 60 59 58 56 56 55 53 51 49 48 46 45 44 42 39 38 37 35 34 32 30 29 29 28 27 26 25 25 25 26 26 26 26 26 27 27 28
61 66 64 63 62 61 61 61 60 59 58 58 57 56 54 52 51 49 47 45 43 41 40 38 37 35 34 32 31 30 29 28 27 27 27 27 27 27 27 27 28 28 28 29
60 60 62 63 64 62 61 61 59 58 57 58 59 60 57 55 53 52 49 47 45 43 41 40 38 37 35 34 33 32 31 30 29 29 29 29 28 28 28 29 29 29 29 29
59 56 60 62 64 63 62 60 58 57 57 58 60 62 60 58 56 54 51 48 46 44 42 41 40 38 37 35 34 33 32 32 31 31 30 30 29 29 30 30 30 30 30 31
59 58 58 60 61 62 60 58 58 57 57 59 60 62 62 60 58 55 52 49 47 44 43 42 41 40 38 37 36 35 34 34 33 32 32 31 31 31 31 31 31 31 31 31
55 57 58 56 56 58 59 58 56 56 58 61 60 61 63 61 57 54 52 50 47 46 45 44 43 42 40 39 38 37 36 35 35 34 33 32 32 32 32 32 32 32 32 32
53 57 58 56 55 57 59 59 57 57 59 63 60 62 64 60 56 53 51 50 48 47 46 45 44 43 41 40 39 38 37 36 36 35 34 33 33 33 33 33 33 33 33 33
50 55 59 58 56 56 58 60 60 58 60 61 61 63 62 59 55 52 51 50 49 48 48 46 45 44 43 41 40 39 38 37 36 35 35 34 34 34 34 34 34 34 33 33
47 51 56 57 55 56 58 60 58 57 58 58 59 59 60 58 53 51 51 50 49 48 48 47 46 45 44 42 41 40 39 38 37 36 36 35 35 35 34 34 34 34 34 34
46 47 52 55 55 56 57 58 59 58 57 57 58 58 58 55 51 49 49 49 48 48 48 48 46 45 44 43 42 41 40 39 38 37 37 36 36 35 35 35 35 34 35 35
46 46 49 51 55 56 57 58 59 59 58 57 57 56 54 50 47 46 45 45 46 47 47 47 46 46 45 44 43 42 41 40 39 38 37 37 36 36 36 35 35 35 36 36
46 45 46 48 49 53 56 57 58 58 59 57 56 55 51 48 45 43 43 43 43 44 45 45 45 45 44 43 42 41 41 40 39 38 38 37 37 36 36 36 35 36 36 36
44 44 43 44 49 51 54 55 56 55 55 55 55 54 50 46 44 43 42 42 41 42 43 43 43 43 43 42 41 40 40 39 39 38 37 37 36 36 36 36 36 36 36 36
43 45 45 43 45 49 51 54 56 56 57 55 55 52 48 45 43 41 41 41 41 41 42 42 42 42 42 41 41 40 40 39 38 38 37 37 36 36 36 36 36 36 36 36
44 45 45 43 43 45 48 51 54 56 55 54 53 51 46 43 42 41 40 39 40 40 41 42 42 41 41 40 40 40 40 39 38 38 37 37 36 36 36 36 36 36 36 36
42 43 44 42 43 44 45 48 51 54 53 51 51 51 46 45 43 41 41 40 40 40 41 41 41 41 40 40 39 39 38 38 38 37 37 36 36 36 36 35 35 36 36 36
40 41 44 42 41 44 46 45 46 50 52 52 51 48 48 47 45 42 41 41 40 41 41 41 41 41 40 40 39 38 37 37 37 37 36 36 36 36 36 36 35 36 36 36
39 40 43 44 44 43 43 42 42 44 47 51 51 50 49 49 47 45 44 42 42 42 42 42 42 42 41 40 39 38 37 37 37 36 36 36 36 36 36 36 36 36 36 36
36 37 40 42 44 43 42 41 41 42 44 47 50 51 50 50 50 48 46 46 44 43 43 43 42 42 41 40 39 38 38 37 37 37 36 36 36 36 36 36 36 36 36 36
35 36 38 40 42 43 41 41 42 42 43 45 48 50 50 50 51 47 46 46 46 45 44 44 43 43 41 40 40 39 38 37 37 36 36 36 36 36 36 36 36 35 35 35
34 35 36 37 39 42 40 40 42 44 42 44 46 47 48 48 48 46 46 46 45 45 45 45 44 43 41 41 40 39 38 37 37 37 36 36 36 36 36 35 35 35 35 36
33 34 34 35 38 37 36 37 40 42 42 43 46 47 47 46 46 47 47 46 45 44 44 44 43 42 42 41 40 39 39 38 38 37 37 36 36 35 35 35 35 35 35 36
32 33 34 35 36 35 35 36 37 40 42 43 45 46 47 47 46 45 46 46 45 44 43 43 43 42 42 41 40 39 39 38 38 38 37 36 36 35 35 35 35 35 36 36
31 33 35 37 37 36 36 36 38 40 42 43 44 45 46 46 46 46 45 45 45 44 43 43 43 42 41 41 40 39 39 38 38 38 37 36 36 35 35 35 35 35 36 36
30 31 34 36 37 38 38 38 38 39 41 42 43 44 45 45 45 44 44 44 44 43 42 42 41 41 41 40 39 38 38 38 38 37 37 36 36 35 35 35 35 36 36 36
27 30 33 35 36 38 39 39 39 39 40 41 41 43 44 44 43 42 42 42 42 41 41 41 40 40 40 39 39 38 38 38 37 37 36 35 35 35 35 35 35 36 36 36
Wind_Direction
225 224 222 222 224 226 226 225 225 225 225 226 227 225 223 224 223 222 222 222 222 223 224 225 227 230 231 234 237 239 243 247 251 255 259 264 268 272 275 279 282 284 288 291
223 224 222 222 223 224 225 226 225 225 225 227 227 227 224 224 223 223 223 224 224 224 226 227 229 231 233 235 238 240 244 247 251 255 259 264 268 271 275 279 281 284 287 290
221 222 221 222 222 223 224 225 225 226 226 228 228 228 225 224 224 224 224 224 225 225 227 229 230 232 234 236 239 241 245 248 252 256 260 264 267 270 274 277 280 283 286 289
220 219 220 221 222 223 224 224 226 227 228 228 228 229 225 225 225 224 224 225 225 226 228 230 232 233 235 237 240 242 246 249 253 256 260 263 266 269 272 276 279 282 285 287
220 217 218 220 221 223 224 224 226 228 230 231 229 231 226 225 225 225 225 226 227 228 229 231 233 235 236 238 241 244 247 251 254 257 260 262 265 269 272 275 278 281 284 286
220 218 219 219 219 222 223 223 225 228 231 232 229 232 229 225 225 226 227 229 230 230 231 232 234 236 238 240 243 246 249 251 254 256 259 262 265 268 271 274 277 280 282 285
219 219 219 218 218 218 220 220 222 226 228 230 229 232 230 225 225 227 229 231 232 232 233 234 235 237 240 242 244 246 249 252 254 256 258 261 264 267 270 273 276 278 281 283
219 218 217 217 217 218 219 220 223 225 228 230 230 232 230 227 225 227 229 231 232 234 234 235 237 239 240 242 244 247 249 251 253 255 257 260 263 265 268 271 275 278 280 282
220 219 217 218 218 218 219 221 222 226 229 230 231 231 231 230 228 227 229 231 232 234 236 237 239 239 241 243 245 246 248 250 252 254 256 259 262 264 267 270 274 277 279 281
219 219 217 216 217 218 219 220 222 224 227 229 231 231 230 229 229 229 229 230 232 233 235 237 239 240 242 243 244 245 247 249 251 254 257 259 262 264 266 269 273 275 278 280
217 219 218 218 218 217 217 218 221 225 227 229 231 231 230 230 229 229 229 229 230 232 234 236 238 240 242 243 244 244 246 248 251 254 257 259 262 264 267 269 272 275 277 279
216 219 219 218 218 219 220 220 221 224 227 228 230 232 230 229 228 229 229 229 230 231 233 234 236 239 241 243 243 244 246 248 250 253 255 258 261 263 266 268 271 274 276 279
215 218 219 217 218 219 221 220 220 222 226 228 229 230 230 230 229 229 229 229 229 230 231 233 235 238 240 241 243 244 245 247 249 252 255 257 260 263 265 268 271 273 276 278
217 218 218 218 218 218 219 221 221 221 222 224 225 226 228 228 229 229 229 228 227 228 229 230 233 235 237 239 241 243 245 247 249 251 254 257 260 262 265 267 270 273 275 277
219 220 220 220 219 219 218 220 223 224 223 225 224 225 224 227 228 228 226 225 225 227 228 229 231 233 236 238 240 242 244 247 249 252 255 257 260 262 265 267 270 273 275 277
221 222 222 223 221 221 221 220 221 222 224 224 223 222 221 224 225 227 227 225 224 225 228 229 230 232 234 237 239 242 244 246 249 252 255 258 260 263 265 267 270 272 274 276
225 225 224 224 222 224 225 220 220 221 222 223 222 219 221 223 224 224 225 225 225 224 226 228 230 231 232 235 238 240 243 245 248 251 254 257 260 263 265 267 269 271 274 276
226 227 228 227 225 227 224 222 222 220 220 222 222 221 221 222 223 224 223 224 225 225 226 227 229 231 232 235 237 239 242 245 247 250 254 257 259 262 265 268 269 271 274 276
226 229 230 230 231 229 224 222 221 221 219 219 221 222 221 221 223 223 223 223 224 226 228 229 229 231 234 235 237 240 243 245 247 251 254 257 260 262 265 267 270 272 274 276
226 228 231 231 232 230 225 223 222 222 220 217 219 220 221 222 223 223 224 224 224 226 229 230 231 232 234 236 238 241 243 245 248 251 254 257 261 263 265 267 269 272 274 276
227 228 229 229 231 229 226 226 224 225 220 219 220 220 221 222 223 222 224 224 225 226 229 230 231 233 235 236 238 241 243 246 248 251 254 258 261 263 265 267 269 272 275 277
226 227 227 227 227 225 225 225 225 223 221 222 223 223 223 223 222 223 224 225 226 226 228 230 232 232 234 237 239 241 244 246 249 251 255 258 260 262 264 266 269 272 275 278
225 226 226 226 224 223 223 223 222 221 220 221 222 223 224 224 222 222 224 225 227 227 228 229 231 233 235 237 239 241 244 247 249 252 255 257 260 262 264 267 270 272 275 278
224 226 227 226 222 222 221 220 220 220 219 220 221 222 223 225 225 225 225 227 229 229 229 229 231 233 235 237 239 241 244 247 249 252 255 257 260 262 264 267 270 273 276 278
223 225 227 226 223 222 221 220 220 220 220 221 221 222 223 224 226 228 228 229 229 230 230 230 231 233 235 237 239 242 244 247 249 252 254 256 259 261 265 268 271 274 277 280
222 225 226 224 224 224 219 219 220 219 219 220 221 221 222 224 226 228 229 229 229 229 229 230 232 233 235 237 240 242 244 246 249 251 253 256 259 262 265 268 272 275 278 280
Height
5632 5640 5649 5662 5673 5685 5692 5699 5707 5716 5724 5729 5735 5743 5750 5756 5761 5767 5772 5778 5783 5788 5791 5795 5798 5801 5805 5808 5811 5813 5815 5816 5818 5819 5820 5821 5821 5821 5820 5820 5819 5818 5817 5815
5618 5627 5643 5653 5662 5670 5678 5686 5695 5704 5711 5717 5723 5730 5739 5745 5752 5758 5764 5769 5775 5780 5783 5788 5791 5795 5798 5801 5804 5806 5808 5810 5812 5813 5814 5814 5814 5815 5814 5814 5813 5812 5810 5809
5606 5622 5632 5639 5647 5656 5665 5676 5685 5693 5700 5705 5711 5718 5727 5734 5741 5748 5754 5761 5766 5772 5776 5780 5784 5788 5791 5794 5797 5800 5802 5804 5805 5806 5807 5808 5808 5808 5808 5807 5806 5805 5804 5803
5595 5609 5617 5625 5635 5646 5655 5667 5675 5681 5687 5692 5699 5705 5716 5724 5730 5738 5746 5752 5758 5764 5768 5772 5776 5781 5784 5787 5790 5792 5794 5796 5798 5799 5800 5801 5802 5802 5801 5800 5800 5799 5797 5796
5584 5596 5604 5614 5627 5637 5647 5657 5664 5670 5675 5680 5686 5692 5704 5712 5720 5729 5737 5744 5750 5755 5760 5764 5768 5772 5776 5779 5782 5784 5787 5789 5790 5792 5793 5794 5794 5794 5794 5793 5793 5792 5791 5789
5577 5586 5594 5606 5618 5627 5636 5644 5651 5656 5660 5665 5676 5680 5690 5702 5713 5722 5729 5735 5741 5746 5751 5755 5759 5763 5767 5771 5774 5776 5779 5781 5782 5784 5785 5786 5787 5787 5786 5786 5785 5785 5784 5782
5565 5573 5583 5594 5603 5612 5620 5630 5637 5641 5645 5653 5665 5667 5678 5695 5705 5713 5720 5726 5731 5736 5741 5746 5750 5755 5759 5762 5766 5768 5771 5773 5774 5776 5777 5778 5779 5779 5779 5778 5778 5777 5776 5775
5556 5564 5573 5582 5592 5601 5609 5618 5626 5633 5638 5647 5652 5657 5672 5685 5695 5702 5709 5714 5720 5725 5731 5736 5741 5745 5750 5753 5757 5760 5762 5764 5766 5768 5769 5770 5770 5771 5771 5771 5770 5770 5769 5767
5547 5556 5566 5575 5584 5592 5599 5606 5618 5625 5630 5636 5639 5651 5662 5673 5683 5691 5698 5704 5710 5715 5721 5726 5731 5736 5740 5744 5747 5751 5753 5755 5757 5759 5760 5761 5762 5763 5763 5763 5762 5762 5761 5760
5539 5547 5556 5565 5572 5580 5590 5599 5605 5610 5617 5624 5631 5641 5652 5663 5673 5681 5688 5694 5700 5705 5710 5715 5721 5725 5730 5734 5737 5741 5744 5746 5748 5750 5751 5753 5754 5754 5754 5754 5754 5754 5753 5751
5530 5538 5546 5553 5560 5570 5579 5586 5592 5601 5607 5616 5624 5635 5645 5655 5664 5671 5677 5683 5688 5694 5699 5705 5710 5715 5719 5723 5727 5731 5734 5737 5739 5741 5743 5744 5745 5746 5746 5746 5746 5745 5744 5743
5522 5530 5537 5545 5555 5562 5569 5577 5584 5592 5599 5608 5616 5629 5635 5645 5653 5660 5666 5671 5677 5683 5688 5694 5699 5704 5709 5713 5717 5721 5724 5727 5730 5732 5734 5735 5736 5737 5737 5738 5738 5737 5736 5735
5514 5521 5528 5535 5544 5550 5556 5565 5573 5583 5591 5597 5606 5620 5627 5636 5643 5650 5656 5662 5667 5673 5678 5684 5689 5694 5699 5703 5707 5711 5714 5717 5720 5722 5724 5726 5727 5728 5729 5729 5729 5728 5727 5726
5506 5512 5519 5525 5531 5539 5546 5555 5563 5570 5577 5586 5597 5610 5619 5627 5634 5640 5646 5652 5657 5663 5669 5674 5679 5684 5688 5693 5697 5701 5705 5708 5710 5713 5715 5717 5718 5719 5720 5720 5720 5719 5718 5717
5497 5503 5509 5515 5522 5529 5537 5545 5552 5560 5570 5579 5591 5601 5612 5618 5624 5631 5636 5642 5648 5653 5659 5664 5669 5674 5679 5683 5687 5691 5695 5698 5701 5704 5706 5708 5709 5710 5711 5711 5710 5710 5709 5708
5489 5496 5501 5507 5514 5520 5527 5535 5542 5551 5561 5571 5581 5592 5603 5607 5614 5621 5627 5633 5638 5644 5649 5654 5659 5664 5669 5673 5678 5682 5686 5689 5692 5694 5696 5698 5699 5700 5701 5701 5701 5701 5700 5699
5483 5489 5494 5500 5506 5510 5518 5528 5535 5544 5553 5563 5572 5586 5591 5597 5604 5611 5617 5622 5628 5634 5639 5644 5650 5654 5659 5663 5668 5672 5676 5679 5682 5684 5687 5688 5690 5691 5692 5692 5692 5692 5691 5690
5477 5482 5486 5493 5499 5503 5515 5521 5528 5536 5544 5553 5562 5571 5579 5587 5593 5599 5606 5612 5618 5624 5629 5634 5639 5644 5649 5654 5658 5662 5666 5669 5672 5675 5677 5679 5680 5681 5682 5682 5683 5682 5682 5681
5470 5475 5480 5485 5490 5497 5507 5514 5521 5527 5535 5544 5551 5560 5567 5574 5580 5588 5595 5602 5608 5613 5619 5624 5630 5635 5640 5645 5649 5653 5657 5660 5663 5666 5668 5669 5671 5672 5672 5673 5673 5673 5672 5672
5463 5467 5473 5478 5484 5491 5502 5508 5512 5519 5526 5535 5541 5548 5556 5562 5570 5581 5586 5592 5598 5604 5609 5615 5620 5626 5631 5636 5640 5644 5648 5651 5654 5656 5658 5660 5661 5662 5663 5663 5663 5663 5663 5662
5455 5460 5465 5470 5475 5484 5493 5498 5503 5512 5521 5526 5532 5538 5545 5552 5562 5569 5574 5581 5588 5594 5600 5605 5611 5617 5622 5626 5631 5635 5638 5642 5644 5646 5649 5650 5652 5653 5653 5654 5654 5654 5653 5652
5448 5453 5459 5463 5469 5480 5485 5489 5496 5503 5510 5516 5522 5528 5536 5544 5551 5557 5564 5571 5578 5585 5591 5596 5602 5607 5612 5617 5621 5625 5629 5632 5634 5637 5639 5641 5642 5643 5644 5644 5644 5644 5643 5642
5441 5446 5450 5456 5464 5470 5474 5479 5486 5492 5499 5505 5512 5519 5527 5534 5541 5547 5555 5562 5568 5575 5581 5587 5592 5597 5602 5607 5612 5616 5619 5622 5625 5627 5629 5631 5632 5633 5634 5634 5634 5634 5633 5632
5433 5437 5442 5447 5455 5460 5465 5470 5477 5483 5490 5496 5503 5510 5518 5525 5531 5538 5545 5552 5558 5565 5571 5576 5582 5587 5592 5597 5602 5606 5609 5612 5615 5617 5619 5621 5623 5624 5624 5625 5625 5624 5623 5622
5425 5429 5434 5439 5446 5451 5456 5462 5468 5474 5481 5487 5494 5501 5509 5515 5523 5529 5536 5543 5549 5555 5561 5567 5572 5578 5583 5587 5592 5596 5599 5602 5605 5607 5610 5611 5613 5614 5615 5615 5615 5614 5614 5612
5419 5422 5427 5432 5438 5441 5447 5453 5459 5465 5472 5479 5486 5492 5499 5506 5514 5520 5527 5533 5540 5546 5551 5557 5562 5568 5573 5578 5582 5586 5589 5593 5595 5598 5600 5602 5603 5604 5605 5605 5605 5604 5603 5602